Location: Praha
(50.0830°N, 14.4670°E)
Time: 17:33:42
(UTC+01:00)

ISS - Pass Details

Date: 07 January 2020
Orbit: 415 x 421 km, 51.6° (Epoch: 18 January)

Event Time Altitude Azimuth Distance (km) Brightness Sun altitude
Exits shadow 05:38:47 48° 159° (SSE) 552 -3.1 -21.6°
Drops below altitude 10° 05:41:28 10° 125° (SE) 1,486 0.0 -21.2°
Sets 05:43:34 0° 121° (ESE) 2,347 1.3 -20.9°
